Location: Unspecified
(40.7945°N, 0.0000°E)
Time: 19:18:56
(UTC+00:00)

Explorer 7 - Pass Details

Date: 20 June 2021
Orbit: 484 x 676 km, 50.3° (Epoch: 30 July)

Event Time Altitude Azimuth Distance (km) Brightness Sun altitude
Rises 01:34:46 0° 303° (WNW) 2,973 10.7 -22.2°
Reaches altitude 10° 01:37:18 10° 311° (NW) 2,035 9.9 -22.0°
Maximum altitude 01:41:42 39° 21° (NNE) 928 8.5 -21.7°
Drops below altitude 10° 01:45:51 10° 91° (E) 1,920 9.9 -21.4°
Sets 01:48:10 0° 99° (E) 2,783 10.6 -21.2°
